DECAYED

STARLINK-1818, 46716 (Decayed)

Orbit data source: Space-Track

STARLINK-1818, 46716 was a payload satellite owned by SpaceX/Seattle (US) in LEO that was launched on Sun, 18 Oct 2020 UTC via an FALCON 9 launch vehicle from the Air Force Eastern Test Range (AFETR). Payload-class satellites include a variety of spacecraft equipped with specific instruments for various scientific and technological missions. These include communications satellites like Starlink; space stations such as the ISS; scientific satellites like the Hubble; Earth observation satellites from companies like Planet Labs, Umbra, and HawkEye 360; GPS; miniature CubeSats for education and research; and military/defense satellites.

Not visible in the next 10 days
Identifier
46716, 2020-073AY
Orbit
Decayed
Country
Flag of USUS
Related business
Manufacturer
SpaceX/Seattle
Mission
Decayed Commercial Communications
Bus & Motor
STARLINK, Unknown motor
Mass
260 kg wet, ~248 kg dry
Launch date (UTC)
Icon of a cake. It is the launch day of the satellite!2020-10-18 (5 years ago)
Launch vehicle
FALCON 9
Launch site
Air Force Eastern Test Range (AFETR)
Object type
Payload
Rocket body
Debris
Shape & HBR
Box + 1 Pan, 10.1 m
Radar Cross Section
13.562 m², Large (>1 m²)

Expand to show TLE details & history
Last TLE update: 4 months ago

TLE from 4 months ago
0 STARLINK-1818
1 46716U 20073AY  25175.27915892  .17067326  12607-4  28357-3 0  9999
2 46716  53.0200 264.0300 0011012 283.4848 182.4274 16.47212610259467
Epoch: 2025-06-24T06:41Z
TLE epoch observation values (Epoch: 2025-06-24T06:41:59.330Z)
Latitude
50.35387°
Longitude
6.23291°
Altitude
159.699 km
Speed
7.812 km/s
True Right ascension
01h 17m 37s
True Declination
50° 10' 10"
Sunlit
Object was in daylight at epoch
Visualization orbit readout
Latitude
Unknown
Longitude
Unknown
Altitude
Unknown
Speed
Unknown
Apparent Right ascension
Unknown
Apparent Declination
Unknown
Sunlit
N/A
Visualization observer readout
Local Sidereal Time
07:46:29
Azimuth
Unknown
Elevation
Unknown
Doppler factor
Unknown
Orbital elements
Apogee altitude
154.164 km
Perigee altitude
139.793 km
Semi-major axis
6,525.116 km
Eccentricity
0.0011
Inclination
53.02°
RAAN
264.03°
Arg. of periapsis
283.4848°
True anomaly
182.42206°
Mean anomaly
182.4274°
Eccentric anomaly
182.42473°
Mean motion
4.11776 °/min
Orbital period
87.43 mins
BSTAR
0.00028357
Loading maneuver chart data...
Computing Atmospheric mass density...
Loading historical data...
Loading historical data...
Loading historical data...
Loading historical data...
Loading historical data...
Loading historical data...
Loading historical data...

Documentation

Showing up to 5 results
|